Tracking 19847 objects as of 16-Sep-2019
HD Live streaming from Space Station
objects crossing your sky now

FENGYUN 1C DEB

Track FENGYUN 1C DEB now!
10-day predictions


NORAD ID: 41014
Int'l Code: 1999-025EXU
Perigee: 657.9 km
Apogee: 753.4 km
Inclination: 98.9 °
Period: 98.7 minutes
Semi major axis: 7076 km
RCS: Unknown
Launch date: May 10, 1999
Source: People's Republic of China (PRC)
Launch site: Taiyaun Space Center, China (TSC)

Note: This is SATELLITE DEBRIS
aabbcc
Your satellite tracking list
Your tracking list is empty




NASA's NSSDC Master Catalog

Two Line Element Set (TLE):
1 41014U 99025EXU 19248.92151687  .00001213  00000-0  26592-3 0  9992
2 41014  98.8720 140.4710 0067465 261.6118  97.7427 14.58336626290816
Source of the keplerian elements: AFSPC